Flag for Ireland Weather past 2 weeks in Galway, Ireland

Now
50 °F

Passing clouds.


Feels Like: 45 °F
Forecast: 48 / 52 °F
Wind: 13 mph from West

Location: Shannon Airport

Current Time: May 28, 2015 at 12:08:53 AM

Latest Report: May 27, 2015 at 11:30 PM


Visibility: N/A

Pressure: 30.04 "Hg

Humidity: 82%

Dew point: 45 °F

Location of GalwayLocation

Historic Weather in Galway — Graph

°F

Galway temperature yesterday

Maximum temperature yesterday: 57 °F (at 5:30 PM)
Minimum temperature yesterday: 45 °F (at 12:00 AM)
Average temperature yesterday: 50 °F

Past Weeks' High & Low Weather Summary

 TemperatureHumidityPressure
High64 °F (May 23, 3:30 PM)100% (May 15, 4:30 PM)30.42 "Hg (May 15, 4:30 PM)
Low39 °F (May 13, 2:30 AM)36% (May 13, 7:00 PM)29.59 "Hg (May 14, 4:30 AM)
Average52 °F80%30.13 "Hg
* Reported May 12 11:00 PM — May 27 11:00 PM, Galway, Weather by CustomWeather, © 2015

Note: Actual official high and low records may vary slightly from our data, if they occured in-between our weather recording intervals... More about our weather records

Advertising

Galway weather history for previous 24 hours

 ConditionsComfort  
Time TempWeatherWind HumidityBarometerVisibility
11:00 PM
Wed, May 27
50 °FPassing clouds.14 mph82%30.04 "HgN/A
10:30 PM50 °FScattered clouds.12 mph82%30.04 "HgN/A
10:00 PM50 °FPassing clouds.15 mph82%30.04 "HgN/A
9:30 PM52 °FPassing clouds.17 mph77%30.04 "HgN/A
9:00 PM52 °FBroken clouds.15 mph77%30.04 "HgN/A
8:30 PM52 °FBroken clouds.17 mph82%30.04 "HgN/A
8:00 PM54 °FPartly sunny.18 mph77%30.04 "HgN/A
7:30 PM55 °FBroken clouds.15 mph72%30.04 "HgN/A
7:00 PM55 °FScattered clouds.20 mph72%30.04 "HgN/A
6:30 PM57 °FScattered clouds.22 mph72%30.04 "HgN/A
6:00 PM57 °FScattered clouds.24 mph77%30.04 "HgN/A
5:30 PM57 °FBroken clouds.24 mph82%30.04 "HgN/A
5:00 PM55 °FBroken clouds.23 mph88%30.04 "HgN/A
4:30 PM55 °FBroken clouds.18 mph94%30.04 "Hg5 mi
4:00 PM55 °FBroken clouds.23 mph94%30.04 "Hg5 mi
3:30 PM55 °FDrizzle. Broken clouds.18 mph94%30.04 "Hg3 mi
3:00 PM54 °FDrizzle. Partly sunny.22 mph100%30.04 "Hg4 mi
2:30 PM52 °FDrizzle. Partly sunny.12 mph94%30.04 "Hg2 mi
2:00 PM50 °FDrizzle. Partly sunny.13 mph94%30.07 "Hg2 mi
1:30 PM50 °FLight rain. Partly sunny.13 mph88%30.09 "Hg2 mi
1:00 PM50 °FLight rain. Mostly cloudy.10 mph88%30.09 "Hg5 mi
12:30 PM50 °FLight rain. Overcast.12 mph82%30.12 "HgN/A
12:00 PM50 °FLight rain. Mostly cloudy.7 mph82%30.15 "HgN/A
11:30 AM50 °FLight rain. Mostly cloudy.12 mph76%30.15 "HgN/A
11:00 AM50 °FLight rain. Partly sunny.9 mph82%30.15 "HgN/A
10:30 AM50 °FPartly sunny.12 mph76%30.18 "HgN/A
10:00 AM48 °FMostly cloudy.10 mph82%30.21 "HgN/A
9:30 AM48 °FOvercast.12 mph82%30.21 "HgN/A
9:00 AM48 °FLight rain. Partly sunny.9 mph82%30.24 "HgN/A
8:30 AM48 °FPartly sunny.10 mph82%30.24 "HgN/A
8:00 AM48 °FMostly cloudy.8 mph82%30.27 "HgN/A
7:30 AM46 °FMostly cloudy.9 mph87%30.27 "HgN/A
7:00 AM46 °FPartly sunny.7 mph87%30.30 "HgN/A
6:30 AM48 °FPartly sunny.6 mph82%30.30 "HgN/A
6:00 AM48 °FPassing clouds.5 mph76%30.30 "HgN/A
5:30 AM48 °FPassing clouds.5 mph76%30.33 "HgN/A
5:00 AM46 °FPassing clouds.5 mph76%30.33 "HgN/A
4:30 AM46 °FPassing clouds.3 mph76%30.33 "HgN/A
4:00 AM46 °FPassing clouds.3 mph76%30.36 "HgN/A
3:30 AM45 °FPassing clouds.5 mph87%30.36 "HgN/A
3:00 AM45 °FPassing clouds.5 mph87%30.39 "HgN/A
2:30 AM45 °FPassing clouds.3 mph87%30.39 "HgN/A
2:00 AM45 °FPassing clouds.7 mph87%30.39 "HgN/A
1:30 AM45 °FPassing clouds.3 mph87%30.39 "HgN/A
1:00 AM45 °FPassing clouds.3 mph87%30.39 "HgN/A
12:30 AM45 °FPassing clouds.2 mph87%30.42 "HgN/A
12:00 AM45 °FPassing clouds.5 mph87%30.42 "HgN/A
Weather by CustomWeather, © 2015

See weather overviewHow to use our weather pages